Time,TemperatureF,DewpointF,PressureIn,WindDirection,WindDirectionDegrees,WindSpeedMPH,WindSpeedGustMPH,Humidity,HourlyPrecipIn,Conditions,Clouds,dailyrainin,SoftwareType,DateUTC
2013-10-22 00:02:00,34.0,34.0,-100.00,East,90,4.0,4.0,99,-99.99,,,-99.99,,2013-10-22 05:02:00,
2013-10-22 00:43:00,34.0,34.0,-100.00,East,90,4.0,4.0,99,-99.99,,,-99.99,,2013-10-22 05:43:00,
2013-10-22 00:52:00,34.0,34.0,-100.00,East,90,4.0,4.0,99,-99.99,,,-99.99,,2013-10-22 05:52:00,
2013-10-22 01:02:00,34.0,34.0,-100.00,East,95,5.0,6.0,99,-99.99,,,-99.99,,2013-10-22 06:02:00,
2013-10-22 01:43:00,34.0,34.0,-100.00,East,95,5.0,6.0,99,-99.99,,,-99.99,,2013-10-22 06:43:00,
2013-10-22 01:54:00,34.0,34.0,-100.00,East,95,5.0,6.0,99,-99.99,,,-99.99,,2013-10-22 06:54:00,
2013-10-22 02:02:00,33.0,33.0,-100.00,East,100,2.0,3.0,99,-99.99,,,-99.99,,2013-10-22 07:02:00,
2013-10-22 02:42:00,33.0,33.0,-100.00,East,100,2.0,3.0,99,-99.99,,,-99.99,,2013-10-22 07:42:00,
2013-10-22 02:52:00,33.0,33.0,-100.00,East,100,2.0,3.0,99,-99.99,,,-99.99,,2013-10-22 07:52:00,
2013-10-22 03:02:00,33.0,32.0,-100.00,ENE,75,9.0,10.0,99,-99.99,,,-99.99,,2013-10-22 08:02:00,
2013-10-22 03:42:00,33.0,32.0,-100.00,ENE,75,9.0,10.0,99,-99.99,,,-99.99,,2013-10-22 08:42:00,
2013-10-22 03:52:00,33.0,32.0,-100.00,ENE,75,9.0,10.0,99,-99.99,,,-99.99,,2013-10-22 08:52:00,
2013-10-22 04:02:00,32.0,32.0,-100.00,East,90,6.0,7.0,99,-99.99,,,-99.99,,2013-10-22 09:02:00,
2013-10-22 04:43:00,32.0,32.0,-100.00,East,90,6.0,7.0,99,-99.99,,,-99.99,,2013-10-22 09:43:00,
2013-10-22 04:54:00,32.0,32.0,-100.00,East,90,6.0,7.0,99,-99.99,,,-99.99,,2013-10-22 09:54:00,
2013-10-22 05:02:00,32.0,32.0,-100.00,East,95,3.0,4.0,99,-99.99,,,-99.99,,2013-10-22 10:02:00,
2013-10-22 05:43:00,32.0,32.0,-100.00,East,95,3.0,4.0,99,-99.99,,,-99.99,,2013-10-22 10:43:00,
2013-10-22 05:53:00,32.0,32.0,-100.00,East,95,3.0,4.0,99,-99.99,,,-99.99,,2013-10-22 10:53:00,
2013-10-22 06:42:00,32.0,32.0,-100.00,SE,130,1.0,3.0,99,-99.99,,,-99.99,,2013-10-22 11:42:00,
2013-10-22 06:53:00,32.0,32.0,-100.00,SE,130,1.0,3.0,99,-99.99,,,-99.99,,2013-10-22 11:53:00,
2013-10-22 07:01:00,32.0,32.0,-100.00,SE,130,1.0,3.0,99,-99.99,,,-99.99,,2013-10-22 12:01:00,
2013-10-22 07:42:00,32.0,32.0,-100.00,ENE,70,2.0,2.0,99,-99.99,,,-99.99,,2013-10-22 12:42:00,
2013-10-22 07:52:00,32.0,32.0,-100.00,ENE,70,2.0,2.0,99,-99.99,,,-99.99,,2013-10-22 12:52:00,
2013-10-22 08:01:00,32.0,32.0,-100.00,ENE,70,2.0,2.0,99,-99.99,,,-99.99,,2013-10-22 13:01:00,
2013-10-22 08:02:00,32.0,32.0,-100.00,ESE,110,2.0,4.0,99,-99.99,,,-99.99,,2013-10-22 13:02:00,
2013-10-22 08:42:00,32.0,32.0,-100.00,ESE,110,2.0,4.0,99,-99.99,,,-99.99,,2013-10-22 13:42:00,
2013-10-22 08:53:00,32.0,32.0,-100.00,ESE,110,2.0,4.0,99,-99.99,,,-99.99,,2013-10-22 13:53:00,
2013-10-22 09:42:00,32.0,32.0,-100.00,NNE,25,2.0,2.0,99,-99.99,,,-99.99,,2013-10-22 14:42:00,
2013-10-22 09:52:00,32.0,32.0,-100.00,NNE,25,2.0,2.0,99,-99.99,,,-99.99,,2013-10-22 14:52:00,
2013-10-22 10:01:00,32.0,32.0,-100.00,NNE,25,2.0,2.0,99,-99.99,,,-99.99,,2013-10-22 15:01:00,
2013-10-22 10:02:00,33.0,32.0,-100.00,ENE,65,1.0,2.0,99,-99.99,,,-99.99,,2013-10-22 15:02:00,
2013-10-22 10:43:00,33.0,32.0,-100.00,ENE,65,1.0,2.0,99,-99.99,,,-99.99,,2013-10-22 15:43:00,
2013-10-22 10:54:00,33.0,32.0,-100.00,ENE,65,1.0,2.0,99,-99.99,,,-99.99,,2013-10-22 15:54:00,
2013-10-22 11:02:00,33.0,33.0,-100.00,North,10,2.0,2.0,99,-99.99,,,-99.99,,2013-10-22 16:02:00,
2013-10-22 11:43:00,33.0,33.0,-100.00,North,10,2.0,2.0,99,-99.99,,,-99.99,,2013-10-22 16:43:00,
2013-10-22 11:53:00,33.0,33.0,-100.00,North,10,2.0,2.0,99,-99.99,,,-99.99,,2013-10-22 16:53:00,
2013-10-22 12:02:00,34.0,34.0,-100.00,NNW,345,2.0,4.0,99,-99.99,,,-99.99,,2013-10-22 17:02:00,
2013-10-22 12:43:00,34.0,34.0,-100.00,NNW,345,2.0,4.0,99,-99.99,,,-99.99,,2013-10-22 17:43:00,
2013-10-22 12:52:00,34.0,34.0,-100.00,NNW,345,2.0,4.0,99,-99.99,,,-99.99,,2013-10-22 17:52:00,
2013-10-22 13:02:00,35.0,34.0,-100.00,North,0,4.0,6.0,99,-99.99,,,-99.99,,2013-10-22 18:02:00,
2013-10-22 13:42:00,35.0,34.0,-100.00,North,0,4.0,6.0,99,-99.99,,,-99.99,,2013-10-22 18:42:00,
2013-10-22 13:52:00,35.0,34.0,-100.00,North,0,4.0,6.0,99,-99.99,,,-99.99,,2013-10-22 18:52:00,
2013-10-22 14:02:00,35.0,35.0,-100.00,North,0,4.0,7.0,99,-99.99,,,-99.99,,2013-10-22 19:02:00,
2013-10-22 14:43:00,35.0,35.0,-100.00,North,0,4.0,7.0,99,-99.99,,,-99.99,,2013-10-22 19:43:00,
2013-10-22 14:53:00,35.0,35.0,-100.00,North,0,4.0,7.0,99,-99.99,,,-99.99,,2013-10-22 19:53:00,
2013-10-22 15:02:00,36.0,36.0,-100.00,NW,305,1.0,1.0,99,-99.99,,,-99.99,,2013-10-22 20:02:00,
2013-10-22 15:43:00,36.0,36.0,-100.00,NW,305,1.0,1.0,99,-99.99,,,-99.99,,2013-10-22 20:43:00,
2013-10-22 15:52:00,36.0,36.0,-100.00,NW,305,1.0,1.0,99,-99.99,,,-99.99,,2013-10-22 20:52:00,
2013-10-22 16:02:00,36.0,35.0,-100.00,North,0,2.0,3.0,97,-99.99,,,-99.99,,2013-10-22 21:02:00,
2013-10-22 16:44:00,36.0,35.0,-100.00,North,0,2.0,3.0,97,-99.99,,,-99.99,,2013-10-22 21:44:00,
2013-10-22 16:54:00,36.0,35.0,-100.00,North,0,2.0,3.0,97,-99.99,,,-99.99,,2013-10-22 21:54:00,
2013-10-22 17:02:00,37.0,35.0,-100.00,NW,305,3.0,4.0,93,-99.99,,,-99.99,,2013-10-22 22:02:00,
2013-10-22 17:44:00,37.0,35.0,-100.00,NW,305,3.0,4.0,93,-99.99,,,-99.99,,2013-10-22 22:44:00,
2013-10-22 17:54:00,37.0,35.0,-100.00,NW,305,3.0,4.0,93,-99.99,,,-99.99,,2013-10-22 22:54:00,
2013-10-22 18:02:00,36.0,34.0,-100.00,North,0,3.0,4.0,93,-99.99,,,-99.99,,2013-10-22 23:02:00,
2013-10-22 18:43:00,36.0,34.0,-100.00,North,0,3.0,4.0,93,-99.99,,,-99.99,,2013-10-22 23:43:00,
2013-10-22 18:53:00,36.0,34.0,-100.00,North,0,3.0,4.0,93,-99.99,,,-99.99,,2013-10-22 23:53:00,
2013-10-22 19:02:00,36.0,34.0,-100.00,North,0,3.0,4.0,93,-99.99,,,-99.99,,2013-10-23 00:02:00,
2013-10-22 19:42:00,36.0,34.0,-100.00,North,0,3.0,4.0,93,-99.99,,,-99.99,,2013-10-23 00:42:00,
2013-10-22 19:52:00,36.0,34.0,-100.00,North,0,3.0,4.0,93,-99.99,,,-99.99,,2013-10-23 00:52:00,
2013-10-22 20:02:00,36.0,27.0,-100.00,NNW,335,1.0,2.0,70,-99.99,,,-99.99,,2013-10-23 01:02:00,
2013-10-22 20:42:00,36.0,27.0,-100.00,NNW,335,1.0,2.0,70,-99.99,,,-99.99,,2013-10-23 01:42:00,
2013-10-22 20:52:00,36.0,27.0,-100.00,NNW,335,1.0,2.0,70,-99.99,,,-99.99,,2013-10-23 01:52:00,
2013-10-22 21:02:00,35.0,34.0,-100.00,South,185,0.0,0.0,95,-99.99,,,-99.99,,2013-10-23 02:02:00,
2013-10-22 21:42:00,35.0,34.0,-100.00,South,185,0.0,0.0,95,-99.99,,,-99.99,,2013-10-23 02:42:00,
2013-10-22 21:54:00,35.0,34.0,-100.00,South,185,0.0,0.0,95,-99.99,,,-99.99,,2013-10-23 02:54:00,
2013-10-22 22:02:00,35.0,34.0,-100.00,SSW,195,0.0,0.0,96,-99.99,,,-99.99,,2013-10-23 03:02:00,
2013-10-22 22:44:00,35.0,34.0,-100.00,SSW,195,0.0,0.0,96,-99.99,,,-99.99,,2013-10-23 03:44:00,
2013-10-22 22:55:00,35.0,34.0,-100.00,SSW,195,0.0,0.0,96,-99.99,,,-99.99,,2013-10-23 03:55:00,
2013-10-22 23:02:00,35.0,34.0,-100.00,ENE,75,0.0,1.0,97,-99.99,,,-99.99,,2013-10-23 04:02:00,
2013-10-22 23:45:00,35.0,34.0,-100.00,ENE,75,0.0,1.0,97,-99.99,,,-99.99,,2013-10-23 04:45:00,
2013-10-22 23:55:00,35.0,34.0,-100.00,ENE,75,0.0,1.0,97,-99.99,,,-99.99,,2013-10-23 04:55:00,